Flag for United Kingdom Weather past 2 weeks in London, England, United Kingdom

Now
45 °F

Clear.


Feels Like: 45 °F
Forecast: 54 / 63 °F
Wind: 2 mph from West

Location: Northolt

Current Time: Sep 23, 2014 at 2:27:18 AM

Latest Report: Sep 23, 2014 at 1:50 AM


Visibility: 2 mi

Pressure: 30.21 "Hg

Humidity: 100%

Dew point: 45 °F

Location of LondonLocation

Historic Weather in London — Graph

°F

London temperature yesterday

Maximum temperature yesterday: 64 °F (at 2:50 PM)
Minimum temperature yesterday: 43 °F (at 5:50 AM)
Average temperature yesterday: 53 °F

Past Weeks' High & Low Weather Summary

 TemperatureHumidityPressure
High77 °F (Sep 18, 2:50 PM)100% (Sep 8, 6:50 AM)30.33 "Hg (Sep 8, 6:50 AM)
Low43 °F (Sep 22, 5:50 AM)40% (Sep 8, 5:50 PM)29.77 "Hg (Sep 18, 2:50 PM)
Average61 °F76%30.09 "Hg
* Reported Sep 8 12:50 AM — Sep 23 12:50 AM, London, Weather by CustomWeather, © 2014

Note: Actual official high and low records may vary slightly from our data, if they occured in-between our weather recording intervals... More about our weather records

Advertising

London weather history for previous 24 hours

 ConditionsComfort  
Time TempWeatherWind HumidityBarometerVisibility
12:50 AM
Sep 23
46 °FClear.2 mph93%30.21 "Hg4 mi
11:50 PM
Sep 22
48 °FClear.1 mph94%30.24 "Hg3 mi
10:50 PM50 °FClear.No wind88%30.24 "Hg10 mi
9:50 PM50 °FClear.2 mph94%30.24 "Hg10 mi
8:50 PM54 °FClear.2 mph82%30.24 "Hg10 mi
7:50 PM57 °FSunny.2 mph72%30.24 "Hg10 mi
6:50 PM61 °FSunny.2 mph63%30.24 "Hg10 mi
5:50 PM64 °FSunny.5 mph49%30.24 "Hg10 mi
4:50 PM64 °FScattered clouds.5 mph49%30.24 "HgN/A
3:50 PM64 °FPartly sunny.6 mph49%30.24 "HgN/A
2:50 PM64 °FPartly sunny.7 mph49%30.27 "HgN/A
1:50 PM63 °FPartly sunny.6 mph49%30.27 "HgN/A
12:50 PM61 °FPartly sunny.7 mph55%30.30 "HgN/A
11:50 AM61 °FPartly sunny.7 mph55%30.30 "HgN/A
10:50 AM57 °FSunny.5 mph63%30.30 "Hg10 mi
9:50 AM54 °FSunny.5 mph72%30.30 "Hg10 mi
8:50 AM48 °FSunny.3 mph87%30.33 "Hg10 mi
7:50 AM45 °FPartly sunny.3 mph100%30.33 "Hg6 mi
6:50 AM43 °FFog.3 mph93%30.30 "HgN/A
5:50 AM43 °FClear.2 mph93%30.30 "HgN/A
4:50 AM45 °FClear.3 mph93%30.30 "Hg6 mi
3:50 AM45 °FClear.3 mph93%30.30 "HgN/A
2:50 AM45 °FClear.2 mph93%30.33 "Hg6 mi
Weather by CustomWeather, © 2014

See weather overviewHow to use our weather pages